Time,TemperatureF,DewpointF,PressureIn,WindDirection,WindDirectionDegrees,WindSpeedMPH,WindSpeedGustMPH,Humidity,HourlyPrecipIn,Conditions,Clouds,dailyrainin,SoftwareType,DateUTC
2013-11-02 07:00:00,37.7,22.5,30.22,West,274,0.0,1.0,54,0.00,,,0.00,Wunderground v.1.15,2013-11-02 14:00:00,
2013-11-02 07:05:00,37.7,22.5,30.22,WNW,285,1.0,1.0,54,0.00,,,0.00,Wunderground v.1.15,2013-11-02 14:05:00,
2013-11-02 07:10:00,37.8,22.6,30.22,WNW,285,0.0,0.0,54,0.00,,,0.00,Wunderground v.1.15,2013-11-02 14:10:00,
2013-11-02 07:15:00,38.4,23.2,30.22,WNW,285,0.0,1.0,54,0.00,,,0.00,Wunderground v.1.15,2013-11-02 14:15:00,
2013-11-02 07:20:00,39.3,23.6,30.22,West,276,0.0,1.0,53,0.00,,,0.00,Wunderground v.1.15,2013-11-02 14:20:00,
2013-11-02 07:25:00,40.3,23.6,30.22,West,264,1.0,1.0,51,0.00,,,0.00,Wunderground v.1.15,2013-11-02 14:25:00,
2013-11-02 07:30:00,41.4,24.1,30.22,West,264,0.0,0.0,50,0.00,,,0.00,Wunderground v.1.15,2013-11-02 14:30:00,
2013-11-02 07:40:00,42.9,24.0,30.22,West,264,0.0,0.0,47,0.00,,,0.00,Wunderground v.1.15,2013-11-02 14:40:00,
2013-11-02 07:46:00,43.5,23.5,30.22,West,264,0.0,0.0,45,0.00,,,0.00,Wunderground v.1.15,2013-11-02 14:46:00,
2013-11-02 07:50:00,44.6,24.0,30.22,NW,311,0.0,0.0,44,0.00,,,0.00,Wunderground v.1.15,2013-11-02 14:50:00,
2013-11-02 07:55:00,45.5,24.3,30.22,NW,311,0.0,0.0,43,0.00,,,0.00,Wunderground v.1.15,2013-11-02 14:55:00,
2013-11-02 08:00:00,46.1,24.3,30.22,NW,310,0.0,0.0,42,0.00,,,0.00,Wunderground v.1.15,2013-11-02 15:00:00,
2013-11-02 08:10:00,49.0,25.1,30.22,NW,310,0.0,0.0,39,0.00,,,0.00,Wunderground v.1.15,2013-11-02 15:10:00,
2013-11-02 08:16:00,50.6,25.3,30.22,North,8,0.0,0.0,37,0.00,,,0.00,Wunderground v.1.15,2013-11-02 15:16:00,
2013-11-02 08:25:00,53.0,26.0,30.22,NNE,18,0.0,0.0,35,0.00,,,0.00,Wunderground v.1.15,2013-11-02 15:25:00,
2013-11-02 08:30:00,53.7,25.2,30.22,North,357,0.0,0.0,33,0.00,,,0.00,Wunderground v.1.15,2013-11-02 15:30:00,
2013-11-02 08:40:00,55.2,26.6,30.22,NNE,20,0.0,1.0,33,0.00,,,0.00,Wunderground v.1.15,2013-11-02 15:40:00,
2013-11-02 08:45:00,56.1,26.6,30.22,ENE,60,0.0,1.0,32,0.00,,,0.00,Wunderground v.1.15,2013-11-02 15:45:00,
2013-11-02 08:55:00,56.5,27.0,30.21,NE,45,0.0,2.0,32,0.00,,,0.00,Wunderground v.1.15,2013-11-02 15:55:00,
2013-11-02 09:00:00,56.6,27.0,30.21,ESE,115,0.0,0.0,32,0.00,,,0.00,Wunderground v.1.15,2013-11-02 16:00:00,
2013-11-02 09:10:00,57.4,26.2,30.21,ENE,69,0.0,0.0,30,0.00,,,0.00,Wunderground v.1.15,2013-11-02 16:10:00,
2013-11-02 09:15:00,58.2,26.9,30.20,North,349,0.0,0.0,30,0.00,,,0.00,Wunderground v.1.15,2013-11-02 16:15:00,
2013-11-02 09:25:00,58.6,26.4,30.20,NE,47,1.0,1.0,29,0.00,,,0.00,Wunderground v.1.15,2013-11-02 16:25:00,
2013-11-02 09:30:00,58.9,25.8,30.19,NE,40,1.0,1.0,28,0.00,,,0.00,Wunderground v.1.15,2013-11-02 16:30:00,
2013-11-02 09:40:00,59.5,25.5,30.19,NE,56,0.0,0.0,27,0.00,,,0.00,Wunderground v.1.15,2013-11-02 16:40:00,
2013-11-02 09:45:00,60.2,26.1,30.19,East,89,0.0,0.0,27,0.00,,,0.00,Wunderground v.1.15,2013-11-02 16:45:00,
2013-11-02 09:55:00,61.0,25.8,30.18,ENE,67,1.0,1.0,26,0.00,,,0.00,Wunderground v.1.15,2013-11-02 16:55:00,
2013-11-02 10:00:00,61.3,26.1,30.18,NE,40,1.0,1.0,26,0.00,,,0.00,Wunderground v.1.15,2013-11-02 17:00:00,
2013-11-02 10:10:00,62.1,26.8,30.18,ENE,58,0.0,1.0,26,0.00,,,0.00,Wunderground v.1.15,2013-11-02 17:10:00,
2013-11-02 10:15:00,62.3,26.9,30.17,East,91,1.0,1.0,26,0.00,,,0.00,Wunderground v.1.15,2013-11-02 17:15:00,
2013-11-02 10:25:00,63.2,26.8,30.17,East,98,1.0,1.0,25,0.00,,,0.00,Wunderground v.1.15,2013-11-02 17:25:00,
2013-11-02 10:30:00,63.6,27.1,30.17,ENE,75,1.0,1.0,25,0.00,,,0.00,Wunderground v.1.15,2013-11-02 17:30:00,
2013-11-02 10:40:00,63.8,25.3,30.16,ENE,67,1.0,1.0,23,0.00,,,0.00,Wunderground v.1.15,2013-11-02 17:40:00,
2013-11-02 10:45:00,64.1,25.5,30.16,NNE,23,1.0,1.0,23,0.00,,,0.00,Wunderground v.1.15,2013-11-02 17:45:00,
2013-11-02 10:55:00,65.6,25.7,30.15,SW,222,1.0,1.0,22,0.00,,,0.00,Wunderground v.1.15,2013-11-02 17:55:00,
2013-11-02 11:00:00,66.1,27.2,30.15,ESE,115,1.0,1.0,23,0.00,,,0.00,Wunderground v.1.15,2013-11-02 18:00:00,
2013-11-02 11:10:00,66.6,25.4,30.15,East,99,1.0,1.0,21,0.00,,,0.00,Wunderground v.1.15,2013-11-02 18:10:00,
2013-11-02 11:15:00,67.3,26.0,30.15,SSW,209,2.0,2.0,21,0.00,,,0.00,Wunderground v.1.15,2013-11-02 18:15:00,
2013-11-02 11:25:00,68.0,26.6,30.14,NE,37,2.0,2.0,21,0.00,,,0.00,Wunderground v.1.15,2013-11-02 18:25:00,
2013-11-02 11:30:00,68.2,25.6,30.14,ENE,60,1.0,4.0,20,0.00,,,0.00,Wunderground v.1.15,2013-11-02 18:30:00,
2013-11-02 11:40:00,68.5,25.8,30.13,NE,46,2.0,2.0,20,0.00,,,0.00,Wunderground v.1.15,2013-11-02 18:40:00,
2013-11-02 11:45:00,69.4,26.6,30.13,NNE,32,1.0,3.0,20,0.00,,,0.00,Wunderground v.1.15,2013-11-02 18:45:00,
2013-11-02 11:55:00,70.3,26.1,30.12,ENE,58,1.0,1.0,19,0.00,,,0.00,Wunderground v.1.15,2013-11-02 18:55:00,
2013-11-02 12:00:00,70.5,26.2,30.11,NE,41,1.0,3.0,19,0.00,,,0.00,Wunderground v.1.15,2013-11-02 19:00:00,
2013-11-02 12:10:00,72.2,24.9,30.11,East,93,2.0,8.0,17,0.00,,,0.00,Wunderground v.1.15,2013-11-02 19:10:00,
2013-11-02 12:15:00,72.3,25.0,30.10,SE,135,3.0,8.0,17,0.00,,,0.00,Wunderground v.1.15,2013-11-02 19:15:00,
2013-11-02 12:25:00,73.9,23.3,30.10,SSE,156,2.0,4.0,15,0.00,,,0.00,Wunderground v.1.15,2013-11-02 19:25:00,
2013-11-02 12:30:00,74.2,25.1,30.09,NE,37,2.0,4.0,16,0.00,,,0.00,Wunderground v.1.15,2013-11-02 19:30:00,
2013-11-02 12:40:00,74.2,25.1,30.08,SSE,148,2.0,3.0,16,0.00,,,0.00,Wunderground v.1.15,2013-11-02 19:40:00,
2013-11-02 12:45:00,75.0,24.2,30.08,East,83,3.0,3.0,15,0.00,,,0.00,Wunderground v.1.15,2013-11-02 19:45:00,
2013-11-02 12:55:00,75.2,22.7,30.07,NNW,337,3.0,3.0,14,0.00,,,0.00,Wunderground v.1.15,2013-11-02 19:55:00,
2013-11-02 13:00:00,75.4,22.8,30.07,NE,34,2.0,2.0,14,0.00,,,0.00,Wunderground v.1.15,2013-11-02 20:00:00,
2013-11-02 13:10:00,76.2,23.5,30.07,WSW,243,3.0,3.0,14,0.00,,,0.00,Wunderground v.1.15,2013-11-02 20:10:00,
2013-11-02 13:15:00,76.1,23.4,30.06,SE,141,3.0,3.0,14,0.00,,,0.00,Wunderground v.1.15,2013-11-02 20:15:00,
2013-11-02 13:25:00,76.6,22.0,30.06,ENE,69,4.0,5.0,13,0.00,,,0.00,Wunderground v.1.15,2013-11-02 20:25:00,
2013-11-02 13:30:00,77.4,18.7,30.05,South,184,4.0,8.0,11,0.00,,,0.00,Wunderground v.1.15,2013-11-02 20:30:00,
2013-11-02 13:40:00,77.0,16.2,30.05,SE,127,7.0,7.0,10,0.00,,,0.00,Wunderground v.1.15,2013-11-02 20:40:00,
2013-11-02 13:45:00,77.4,16.5,30.04,SE,132,7.0,7.0,10,0.00,,,0.00,Wunderground v.1.15,2013-11-02 20:45:00,
2013-11-02 13:55:00,77.9,16.9,30.04,SSE,157,6.0,9.0,10,0.00,,,0.00,Wunderground v.1.15,2013-11-02 20:55:00,
2013-11-02 14:00:00,77.7,14.3,30.03,SSE,158,6.0,6.0,9,0.00,,,0.00,Wunderground v.1.15,2013-11-02 21:00:00,
2013-11-02 14:10:00,77.5,14.2,30.03,SSE,150,7.0,8.0,9,0.00,,,0.00,Wunderground v.1.15,2013-11-02 21:10:00,
2013-11-02 14:15:00,77.4,11.4,30.03,SSW,199,7.0,8.0,8,0.00,,,0.00,Wunderground v.1.15,2013-11-02 21:15:00,
2013-11-02 14:25:00,77.4,14.1,30.02,South,179,8.0,12.0,9,0.00,,,0.00,Wunderground v.1.15,2013-11-02 21:25:00,
2013-11-02 14:30:00,77.5,14.2,30.02,SE,138,8.0,10.0,9,0.00,,,0.00,Wunderground v.1.15,2013-11-02 21:30:00,
2013-11-02 14:40:00,77.5,14.2,30.02,SE,137,8.0,8.0,9,0.00,,,0.00,Wunderground v.1.15,2013-11-02 21:40:00,
2013-11-02 14:45:00,77.8,14.4,30.01,SE,139,7.0,8.0,9,0.00,,,0.00,Wunderground v.1.15,2013-11-02 21:45:00,
2013-11-02 14:55:00,77.3,14.0,30.01,SSE,155,7.0,10.0,9,0.00,,,0.00,Wunderground v.1.15,2013-11-02 21:55:00,
2013-11-02 15:00:00,76.0,15.4,30.01,SE,134,7.0,7.0,10,0.00,,,0.00,Wunderground v.1.15,2013-11-02 22:00:00,
2013-11-02 15:10:00,77.3,16.4,30.00,SSE,155,5.0,8.0,10,0.00,,,0.00,Wunderground v.1.15,2013-11-02 22:10:00,
2013-11-02 15:15:00,76.8,16.1,30.00,SE,125,7.0,12.0,10,0.00,,,0.00,Wunderground v.1.15,2013-11-02 22:15:00,
2013-11-02 15:25:00,76.2,15.6,30.00,SSW,195,6.0,8.0,10,0.00,,,0.00,Wunderground v.1.15,2013-11-02 22:25:00,
2013-11-02 15:30:00,75.3,14.9,30.00,South,182,6.0,6.0,10,0.00,,,0.00,Wunderground v.1.15,2013-11-02 22:30:00,
2013-11-02 15:40:00,74.2,14.1,30.00,South,170,7.0,8.0,10,0.00,,,0.00,Wunderground v.1.15,2013-11-02 22:40:00,
2013-11-02 15:45:00,74.1,16.2,29.99,SSE,161,7.0,8.0,11,0.00,,,0.00,Wunderground v.1.15,2013-11-02 22:45:00,
2013-11-02 15:55:00,75.4,15.0,30.00,SSE,154,7.0,11.0,10,0.00,,,0.00,Wunderground v.1.15,2013-11-02 22:55:00,
2013-11-02 16:00:00,74.6,14.4,29.99,ESE,114,7.0,9.0,10,0.00,,,0.00,Wunderground v.1.15,2013-11-02 23:00:00,
2013-11-02 16:10:00,75.5,15.1,29.99,SSE,148,5.0,9.0,10,0.00,,,0.00,Wunderground v.1.15,2013-11-02 23:10:00,
2013-11-02 16:15:00,76.4,15.7,29.99,ESE,118,5.0,9.0,10,0.00,,,0.00,Wunderground v.1.15,2013-11-02 23:15:00,
2013-11-02 16:25:00,75.8,15.3,29.99,SSE,149,6.0,8.0,10,0.00,,,0.00,Wunderground v.1.15,2013-11-02 23:25:00,
2013-11-02 16:30:00,74.9,14.6,29.99,South,171,6.0,6.0,10,0.00,,,0.00,Wunderground v.1.15,2013-11-02 23:30:00,
2013-11-02 16:40:00,74.3,14.1,29.99,South,173,4.0,6.0,10,0.00,,,0.00,Wunderground v.1.15,2013-11-02 23:40:00,
2013-11-02 16:45:00,73.9,13.8,29.99,SE,143,6.0,7.0,10,0.00,,,0.00,Wunderground v.1.15,2013-11-02 23:45:00,
2013-11-02 16:55:00,73.2,13.3,29.99,SSW,208,5.0,6.0,10,0.00,,,0.00,Wunderground v.1.15,2013-11-02 23:55:00,
2013-11-02 17:00:00,72.2,14.7,29.99,South,191,5.0,5.0,11,0.00,,,0.00,Wunderground v.1.15,2013-11-03 00:00:00,
2013-11-02 17:10:00,70.7,13.5,29.99,SSE,165,3.0,6.0,11,0.00,,,0.00,Wunderground v.1.15,2013-11-03 00:10:00,
2013-11-02 17:15:00,70.4,15.3,29.99,South,191,4.0,6.0,12,0.00,,,0.00,Wunderground v.1.15,2013-11-03 00:15:00,
2013-11-02 17:25:00,69.4,14.5,29.98,South,174,4.0,4.0,12,0.00,,,0.00,Wunderground v.1.15,2013-11-03 00:25:00,
2013-11-02 17:30:00,68.9,14.1,29.99,SSW,207,3.0,4.0,12,0.00,,,0.00,Wunderground v.1.15,2013-11-03 00:30:00,
2013-11-02 17:40:00,68.3,15.5,29.98,SSW,200,3.0,4.0,13,0.00,,,0.00,Wunderground v.1.15,2013-11-03 00:40:00,
2013-11-02 17:45:00,68.1,15.3,29.98,SSW,213,4.0,4.0,13,0.00,,,0.00,Wunderground v.1.15,2013-11-03 00:45:00,
2013-11-02 17:55:00,67.1,14.5,29.98,SSW,198,2.0,4.0,13,0.00,,,0.00,Wunderground v.1.15,2013-11-03 00:55:00,
2013-11-02 18:00:00,66.6,15.9,29.98,SW,217,2.0,2.0,14,0.00,,,0.00,Wunderground v.1.15,2013-11-03 01:00:00,
2013-11-02 18:10:00,65.2,14.7,29.99,SSW,192,1.0,2.0,14,0.00,,,0.00,Wunderground v.1.15,2013-11-03 01:10:00,
2013-11-02 18:15:00,64.7,15.9,29.99,SSW,193,1.0,2.0,15,0.00,,,0.00,Wunderground v.1.15,2013-11-03 01:15:00,
2013-11-02 18:25:00,64.1,15.4,29.99,SSW,206,0.0,1.0,15,0.00,,,0.00,Wunderground v.1.15,2013-11-03 01:25:00,
2013-11-02 18:30:00,63.9,15.3,29.99,SSW,195,1.0,1.0,15,0.00,,,0.00,Wunderground v.1.15,2013-11-03 01:30:00,
2013-11-02 18:40:00,63.8,15.2,29.99,SSW,205,1.0,1.0,15,0.00,,,0.00,Wunderground v.1.15,2013-11-03 01:40:00,
2013-11-02 18:45:00,63.6,15.0,29.99,SSW,212,1.0,1.0,15,0.00,,,0.00,Wunderground v.1.15,2013-11-03 01:45:00,
2013-11-02 18:55:00,63.5,15.0,29.99,SW,225,1.0,1.0,15,0.00,,,0.00,Wunderground v.1.15,2013-11-03 01:55:00,
2013-11-02 19:00:00,63.3,16.3,29.98,SSW,208,1.0,4.0,16,0.00,,,0.00,Wunderground v.1.15,2013-11-03 02:00:00,
2013-11-02 19:10:00,64.4,15.7,29.98,SW,217,2.0,3.0,15,0.00,,,0.00,Wunderground v.1.15,2013-11-03 02:10:00,
2013-11-02 19:15:00,64.3,15.6,29.98,SSW,200,2.0,7.0,15,0.00,,,0.00,Wunderground v.1.15,2013-11-03 02:15:00,
2013-11-02 19:25:00,64.6,15.8,29.98,SSE,166,2.0,2.0,15,0.00,,,0.00,Wunderground v.1.15,2013-11-03 02:25:00,
2013-11-02 19:30:00,64.7,15.9,29.98,SW,217,3.0,6.0,15,0.00,,,0.00,Wunderground v.1.15,2013-11-03 02:30:00,
2013-11-02 19:40:00,64.4,15.7,29.98,SSW,205,2.0,2.0,15,0.00,,,0.00,Wunderground v.1.15,2013-11-03 02:40:00,
2013-11-02 19:45:00,64.6,15.8,29.99,SSW,196,3.0,3.0,15,0.00,,,0.00,Wunderground v.1.15,2013-11-03 02:45:00,
2013-11-02 19:55:00,64.8,16.0,29.98,SSW,194,3.0,3.0,15,0.00,,,0.00,Wunderground v.1.15,2013-11-03 02:55:00,
2013-11-02 20:00:00,64.7,15.9,29.98,SW,230,2.0,2.0,15,0.00,,,0.00,Wunderground v.1.15,2013-11-03 03:00:00,
2013-11-02 20:10:00,64.2,17.0,29.99,SE,127,2.0,2.0,16,0.00,,,0.00,Wunderground v.1.15,2013-11-03 03:10:00,
2013-11-02 20:15:00,62.4,15.6,29.99,East,80,0.0,2.0,16,0.00,,,0.00,Wunderground v.1.15,2013-11-03 03:15:00,
2013-11-02 20:25:00,59.2,15.7,29.99,NW,306,0.0,0.0,18,0.00,,,0.00,Wunderground v.1.15,2013-11-03 03:25:00,
2013-11-02 20:30:00,58.3,16.2,29.99,NW,310,0.0,0.0,19,0.00,,,0.00,Wunderground v.1.15,2013-11-03 03:30:00,
2013-11-02 20:40:00,57.6,15.6,29.99,North,350,0.0,0.0,19,0.00,,,0.00,Wunderground v.1.15,2013-11-03 03:40:00,
2013-11-02 20:45:00,57.5,16.7,29.98,NNE,27,0.0,0.0,20,0.00,,,0.00,Wunderground v.1.15,2013-11-03 03:45:00,
2013-11-02 20:55:00,57.8,16.9,29.98,NNE,27,0.0,0.0,20,0.00,,,0.00,Wunderground v.1.15,2013-11-03 03:55:00,
2013-11-02 21:00:00,58.0,17.1,29.98,NNE,27,0.0,0.0,20,0.00,,,0.00,Wunderground v.1.15,2013-11-03 04:00:00,
2013-11-02 21:05:00,57.6,16.8,29.98,NNE,27,0.0,0.0,20,0.00,,,0.00,Wunderground v.1.15,2013-11-03 04:05:00,
2013-11-02 21:10:00,57.2,16.4,29.98,NNE,27,0.0,0.0,20,0.00,,,0.00,Wunderground v.1.15,2013-11-03 04:10:00,
2013-11-02 21:15:00,56.3,16.8,29.98,SE,133,0.0,0.0,21,0.00,,,0.00,Wunderground v.1.15,2013-11-03 04:15:00,
2013-11-02 21:20:00,55.7,16.3,29.98,SSE,150,0.0,0.0,21,0.00,,,0.00,Wunderground v.1.15,2013-11-03 04:20:00,
2013-11-02 21:25:00,55.4,17.1,29.98,NNE,25,0.0,0.0,22,0.00,,,0.00,Wunderground v.1.15,2013-11-03 04:25:00,
2013-11-02 21:30:00,55.3,17.0,29.98,NNE,25,0.0,0.0,22,0.00,,,0.00,Wunderground v.1.15,2013-11-03 04:30:00,
2013-11-02 21:35:00,54.5,16.4,29.98,WNW,285,0.0,0.0,22,0.00,,,0.00,Wunderground v.1.15,2013-11-03 04:35:00,
2013-11-02 21:40:00,54.2,17.1,29.98,West,276,0.0,0.0,23,0.00,,,0.00,Wunderground v.1.15,2013-11-03 04:40:00,
2013-11-02 21:45:00,54.4,17.3,29.99,West,276,0.0,0.0,23,0.00,,,0.00,Wunderground v.1.15,2013-11-03 04:45:00,
2013-11-02 21:55:00,54.2,17.1,29.99,West,276,0.0,0.0,23,0.00,,,0.00,Wunderground v.1.15,2013-11-03 04:55:00,
2013-11-02 22:00:00,53.6,16.6,29.99,SSW,210,0.0,0.0,23,0.00,,,0.00,Wunderground v.1.15,2013-11-03 05:00:00,
2013-11-02 22:10:00,51.1,16.4,29.99,WNW,285,0.0,0.0,25,0.00,,,0.00,Wunderground v.1.15,2013-11-03 05:10:00,
2013-11-02 22:15:00,50.2,16.6,29.99,WNW,285,0.0,0.0,26,0.00,,,0.00,Wunderground v.1.15,2013-11-03 05:15:00,
2013-11-02 22:25:00,52.2,17.4,29.99,WNW,285,0.0,0.0,25,0.00,,,0.00,Wunderground v.1.15,2013-11-03 05:25:00,
2013-11-02 22:30:00,52.5,16.7,30.00,WNW,285,0.0,0.0,24,0.00,,,0.00,Wunderground v.1.15,2013-11-03 05:30:00,
2013-11-02 22:40:00,53.4,17.5,30.00,WNW,285,0.0,0.0,24,0.00,,,0.00,Wunderground v.1.15,2013-11-03 05:40:00,
2013-11-02 22:45:00,53.9,16.9,30.00,WNW,285,0.0,0.0,23,0.00,,,0.00,Wunderground v.1.15,2013-11-03 05:45:00,
2013-11-02 22:55:00,54.5,18.4,29.99,WNW,284,0.0,0.0,24,0.00,,,0.00,Wunderground v.1.15,2013-11-03 05:55:00,
2013-11-02 23:00:00,53.2,18.2,29.99,WNW,285,0.0,0.0,25,0.00,,,0.00,Wunderground v.1.15,2013-11-03 06:00:00,
2013-11-02 23:10:00,52.7,18.7,29.99,West,277,0.0,0.0,26,0.00,,,0.00,Wunderground v.1.15,2013-11-03 06:10:00,
2013-11-02 23:15:00,52.3,18.4,29.99,West,277,0.0,0.0,26,0.00,,,0.00,Wunderground v.1.15,2013-11-03 06:15:00,
2013-11-02 23:25:00,53.0,17.1,29.99,West,277,0.0,0.0,24,0.00,,,0.00,Wunderground v.1.15,2013-11-03 06:25:00,
2013-11-02 23:30:00,53.3,17.4,29.98,West,276,0.0,0.0,24,0.00,,,0.00,Wunderground v.1.15,2013-11-03 06:30:00,
2013-11-02 23:40:00,52.9,17.0,29.99,West,278,0.0,1.0,24,0.00,,,0.00,Wunderground v.1.15,2013-11-03 06:40:00,
2013-11-02 23:45:00,50.9,17.2,29.99,West,266,1.0,1.0,26,0.00,,,0.00,Wunderground v.1.15,2013-11-03 06:45:00,
2013-11-02 23:55:00,51.0,17.3,29.99,West,267,0.0,0.0,26,0.00,,,0.00,Wunderground v.1.15,2013-11-03 06:55:00,